Flag for Germany Weather past 2 weeks in Kornwestheim, Baden-Württemberg, Germany

Now
70 °F

Passing clouds.


Feels Like: 70 °F
Forecast: 54 / 61 °F
Wind: 17 mph from West

Location: Stuttgart-Echterdingen

Current Time: Jul 28, 2015 at 4:27:36 PM

Latest Report: Jul 28, 2015 at 3:50 PM


Visibility: N/A

Pressure: 29.83 "Hg

Humidity: 40%

Dew point: 45 °F

Location of KornwestheimLocation

Historic Weather in Kornwestheim — Graph

°F

Kornwestheim temperature yesterday

Maximum temperature yesterday: 72 °F (at 2:50 PM)
Minimum temperature yesterday: 59 °F (at 3:50 AM)
Average temperature yesterday: 65 °F

Past Weeks' High & Low Weather Summary

 TemperatureHumidityPressure
High95 °F (Jul 22, 2:20 PM)94% (Jul 23, 1:50 AM)30.15 "Hg (Jul 23, 1:50 AM)
Low48 °F (Jul 26, 5:50 AM)26% (Jul 16, 5:20 PM)29.71 "Hg (Jul 24, 7:20 PM)
Average72 °F60%29.98 "Hg
* Reported Jul 13 3:20 PM — Jul 28 3:20 PM, Kornwestheim, Weather by CustomWeather, © 2015

Note: Actual official high and low records may vary slightly from our data, if they occured in-between our weather recording intervals... More about our weather records

Advertising

Kornwestheim weather history for previous 24 hours

 ConditionsComfort  
Time TempWeatherWind HumidityBarometerVisibility
3:20 PM
Tue, Jul 28
72 °FPassing clouds.18 mph38%29.83 "HgN/A
2:50 PM72 °FPassing clouds.18 mph41%29.83 "HgN/A
2:20 PM72 °FPassing clouds.16 mph38%29.83 "HgN/A
1:50 PM70 °FPassing clouds.16 mph43%29.83 "HgN/A
1:20 PM70 °FScattered clouds.15 mph43%29.83 "HgN/A
12:50 PM70 °FBroken clouds.15 mph43%29.83 "HgN/A
12:20 PM68 °FBroken clouds.18 mph46%29.86 "HgN/A
11:50 AM66 °FBroken clouds.15 mph49%29.86 "HgN/A
11:20 AM66 °FBroken clouds.16 mph49%29.86 "HgN/A
10:50 AM64 °FBroken clouds.20 mph52%29.86 "HgN/A
10:20 AM66 °FBroken clouds.17 mph49%29.86 "HgN/A
9:50 AM66 °FPartly sunny.13 mph52%29.86 "HgN/A
9:20 AM64 °FPartly sunny.16 mph56%29.86 "HgN/A
8:50 AM64 °FPartly sunny.13 mph56%29.86 "HgN/A
8:20 AM64 °FBroken clouds.9 mph56%29.83 "HgN/A
7:50 AM64 °FBroken clouds.9 mph56%29.83 "HgN/A
7:20 AM63 °FBroken clouds.6 mph64%29.83 "HgN/A
6:50 AM63 °FPartly cloudy.7 mph68%29.83 "HgN/A
6:20 AM63 °FPassing clouds.3 mph68%29.80 "HgN/A
5:50 AM63 °FScattered showers. Partly cloudy.6 mph64%29.80 "HgN/A
5:20 AM63 °FPartly cloudy.7 mph64%29.80 "HgN/A
4:50 AM63 °FPassing clouds.3 mph64%29.80 "HgN/A
4:20 AM63 °FPassing clouds.6 mph64%29.80 "HgN/A
3:50 AM63 °FScattered showers. Passing clouds.8 mph64%29.80 "HgN/A
3:20 AM64 °FScattered showers. Passing clouds.9 mph56%29.80 "HgN/A
2:50 AM64 °FPassing clouds.7 mph56%29.80 "HgN/A
2:20 AM63 °FPassing clouds.6 mph64%29.80 "HgN/A
1:50 AM63 °FPassing clouds.6 mph59%29.80 "HgN/A
1:20 AM63 °FPassing clouds.3 mph59%29.83 "HgN/A
12:50 AM63 °FPassing clouds.6 mph59%29.83 "HgN/A
12:20 AM63 °FPassing clouds.6 mph59%29.83 "HgN/A
11:50 PM
Mon, Jul 27
63 °FPassing clouds.5 mph56%29.83 "HgN/A
11:20 PM63 °FPassing clouds.5 mph56%29.83 "HgN/A
10:50 PM63 °FPassing clouds.6 mph56%29.83 "HgN/A
10:20 PM64 °FClear.2 mph52%29.83 "Hg10 mi
9:50 PM66 °FPassing clouds.3 mph49%29.83 "HgN/A
9:20 PM66 °FPassing clouds.5 mph49%29.83 "HgN/A
8:50 PM68 °FPassing clouds.7 mph43%29.83 "HgN/A
8:20 PM68 °FPassing clouds.13 mph43%29.83 "HgN/A
7:50 PM70 °FPassing clouds.14 mph40%29.80 "HgN/A
7:20 PM70 °FPassing clouds.18 mph43%29.80 "HgN/A
6:50 PM70 °FPassing clouds.20 mph40%29.80 "HgN/A
6:20 PM72 °FSunny.23 mph38%29.80 "Hg10 mi
5:50 PM70 °FSunny.22 mph43%29.80 "Hg10 mi
5:20 PM70 °FPassing clouds.17 mph43%29.80 "HgN/A
4:50 PM70 °FScattered clouds.18 mph46%29.80 "HgN/A
4:20 PM68 °FScattered clouds.18 mph53%29.80 "HgN/A
Weather by CustomWeather, © 2015

See weather overviewHow to use our weather pages